Starlink 35778

operational
NORAD ID: 66973 Int'l Des: 2025-288 Owner: SPXS Country: US Constellation: starlink
LEOCIRCULAR

About Starlink 35778

Description loading...

Live Position

Loading 3D Globe...

Upcoming Passes

Altitude History

Altitude vs Time

uPlot chart will show altitude changes over time

Two-Line Element Set

1 66973C 25288Q 25346.10534722 -.01058100 00000+0 -18581-2 0 3467
2 66973 43.0040 171.7996 0001790 272.9428 163.0012 16.02096146 14
Epoch: Dec 12, 2025 • Age: 50 hours

Current Status

Altitude 289.2 km
Velocity 7.74 km/s
Sub-Earth Point -38.27°S, 71.35°W
Launch Date Dec 8, 2025
Age 5 days
Type internet

Technical Details

Classification Payload
Mass 575.00 kg
Dry Mass 530.00 kg
Total Mass 575.00 kg
Length 0.30 m
Diameter 4.10 m
Span 29.00 m
Shape Box + pan
Manufacturer SPXS
Bus Type Starlink V2MO
Phase Status In Orbit
Owner/State SPXS/US

Large Constellations

Loading constellations...